Year,Month,Day,Hour,Minute,Value (Times are PST for temperature in C)
2019,05,22,00,00,14.20
2019,05,22,00,01,14.20
2019,05,22,00,02,14.10
2019,05,22,00,03,14.10
2019,05,22,00,04,14.10
2019,05,22,00,05,14.10
2019,05,22,00,06,14.10
2019,05,22,00,07,14.00
2019,05,22,00,08,14.00
2019,05,22,00,09,14.00
2019,05,22,00,10,13.90
2019,05,22,00,11,13.90
2019,05,22,00,12,13.90
2019,05,22,00,13,13.90
2019,05,22,00,14,13.90
2019,05,22,00,15,13.90
2019,05,22,00,16,13.90
2019,05,22,00,17,13.90
2019,05,22,00,18,13.80
2019,05,22,00,19,13.80
2019,05,22,00,20,13.80
2019,05,22,00,21,13.80
2019,05,22,00,22,13.80
2019,05,22,00,23,13.80
2019,05,22,00,24,13.80
2019,05,22,00,25,13.80
2019,05,22,00,26,13.80
2019,05,22,00,27,13.80
2019,05,22,00,28,13.80
2019,05,22,00,29,13.80
2019,05,22,00,30,13.80
2019,05,22,00,31,13.80
2019,05,22,00,32,13.80
2019,05,22,00,33,13.70
2019,05,22,00,34,13.70
2019,05,22,00,35,13.70
2019,05,22,00,36,13.70
2019,05,22,00,37,13.70
2019,05,22,00,38,13.70
2019,05,22,00,39,13.70
2019,05,22,00,40,13.60
2019,05,22,00,41,13.60
2019,05,22,00,42,13.60
2019,05,22,00,43,13.60
2019,05,22,00,44,13.60
2019,05,22,00,45,13.60
2019,05,22,00,46,13.60
2019,05,22,00,47,13.60
2019,05,22,00,48,13.60
2019,05,22,00,49,13.60
2019,05,22,00,50,13.50
2019,05,22,00,51,13.50
2019,05,22,00,52,13.50
2019,05,22,00,53,13.50
2019,05,22,00,54,13.50
2019,05,22,00,55,13.50
2019,05,22,00,56,13.50
2019,05,22,00,57,13.50
2019,05,22,00,58,13.50
2019,05,22,00,59,13.50
2019,05,22,01,00,13.50
2019,05,22,01,01,13.50
2019,05,22,01,02,13.50
2019,05,22,01,03,13.50
2019,05,22,01,04,13.50
2019,05,22,01,05,13.50
2019,05,22,01,06,13.50
2019,05,22,01,07,13.50
2019,05,22,01,08,13.50
2019,05,22,01,09,13.40
2019,05,22,01,10,13.40
2019,05,22,01,11,13.40
2019,05,22,01,12,13.40
2019,05,22,01,13,13.40
2019,05,22,01,14,13.40
2019,05,22,01,15,13.30
2019,05,22,01,16,13.30
2019,05,22,01,17,13.30
2019,05,22,01,18,13.30
2019,05,22,01,19,13.20
2019,05,22,01,20,13.20
2019,05,22,01,21,13.20
2019,05,22,01,22,13.20
2019,05,22,01,23,13.10
2019,05,22,01,24,13.10
2019,05,22,01,25,13.10
2019,05,22,01,26,13.00
2019,05,22,01,27,13.00
2019,05,22,01,28,12.90
2019,05,22,01,29,12.90
2019,05,22,01,30,12.90
2019,05,22,01,31,12.90
2019,05,22,01,32,12.90
2019,05,22,01,33,12.80
2019,05,22,01,34,12.80
2019,05,22,01,35,12.80
2019,05,22,01,36,12.80
2019,05,22,01,37,12.80
2019,05,22,01,38,12.80
2019,05,22,01,39,12.80
2019,05,22,01,40,12.80
2019,05,22,01,41,12.80
2019,05,22,01,42,12.80
2019,05,22,01,43,12.80
2019,05,22,01,44,12.80
2019,05,22,01,45,12.80
2019,05,22,01,46,12.80
2019,05,22,01,47,12.70
2019,05,22,01,48,12.70
2019,05,22,01,49,12.70
2019,05,22,01,50,12.70
2019,05,22,01,51,12.70
2019,05,22,01,52,12.70
2019,05,22,01,53,12.70
2019,05,22,01,54,12.70
2019,05,22,01,55,12.70
2019,05,22,01,56,12.70
2019,05,22,01,57,12.70
2019,05,22,01,58,12.70
2019,05,22,01,59,12.70
2019,05,22,02,00,12.70
2019,05,22,02,01,12.70
2019,05,22,02,02,12.70
2019,05,22,02,03,12.70
2019,05,22,02,04,12.60
2019,05,22,02,05,12.60
2019,05,22,02,06,12.60
2019,05,22,02,07,12.60
2019,05,22,02,08,12.60
2019,05,22,02,09,12.60
2019,05,22,02,10,12.60
2019,05,22,02,11,12.60
2019,05,22,02,12,12.60
2019,05,22,02,13,12.60
2019,05,22,02,14,12.60
2019,05,22,02,15,12.60
2019,05,22,02,16,12.50
2019,05,22,02,17,12.50
2019,05,22,02,18,12.50
2019,05,22,02,19,12.50
2019,05,22,02,20,12.50
2019,05,22,02,21,12.50
2019,05,22,02,22,12.40
2019,05,22,02,23,12.40
2019,05,22,02,24,12.40
2019,05,22,02,25,12.40
2019,05,22,02,26,12.40
2019,05,22,02,27,12.30
2019,05,22,02,28,12.30
2019,05,22,02,29,12.30
2019,05,22,02,30,12.30
2019,05,22,02,31,12.30
2019,05,22,02,32,12.30
2019,05,22,02,33,12.30
2019,05,22,02,34,12.30
2019,05,22,02,35,12.30
2019,05,22,02,36,12.30
2019,05,22,02,37,12.30
2019,05,22,02,38,12.30
2019,05,22,02,39,12.20
2019,05,22,02,40,12.20
2019,05,22,02,41,12.20
2019,05,22,02,42,12.20
2019,05,22,02,43,12.20
2019,05,22,02,44,12.20
2019,05,22,02,45,12.20
2019,05,22,02,46,12.20
2019,05,22,02,47,12.20
2019,05,22,02,48,12.20
2019,05,22,02,49,12.20
2019,05,22,02,50,12.10
2019,05,22,02,51,12.10
2019,05,22,02,52,12.10
2019,05,22,02,53,12.10
2019,05,22,02,54,12.10
2019,05,22,02,55,12.10
2019,05,22,02,56,12.00
2019,05,22,02,57,12.00
2019,05,22,02,58,12.00
2019,05,22,02,59,11.90
2019,05,22,03,00,11.90
2019,05,22,03,01,11.90
2019,05,22,03,02,11.90
2019,05,22,03,03,11.90
2019,05,22,03,04,11.90
2019,05,22,03,05,11.80
2019,05,22,03,06,11.80
2019,05,22,03,07,11.80
2019,05,22,03,08,11.80
2019,05,22,03,09,11.80
2019,05,22,03,10,11.80
2019,05,22,03,11,11.80
2019,05,22,03,12,11.80
2019,05,22,03,13,11.80
2019,05,22,03,14,11.80
2019,05,22,03,15,11.80
2019,05,22,03,16,11.80
2019,05,22,03,17,11.80
2019,05,22,03,18,11.80
2019,05,22,03,19,11.80
2019,05,22,03,20,11.80
2019,05,22,03,21,11.80
2019,05,22,03,22,11.80
2019,05,22,03,23,11.80
2019,05,22,03,24,11.80
2019,05,22,03,25,11.80
2019,05,22,03,26,11.80
2019,05,22,03,27,11.80
2019,05,22,03,28,11.80
2019,05,22,03,29,11.80
2019,05,22,03,30,11.80
2019,05,22,03,31,11.80
2019,05,22,03,32,11.80
2019,05,22,03,33,11.80
2019,05,22,03,34,11.80
2019,05,22,03,35,11.80
2019,05,22,03,36,11.70
2019,05,22,03,37,11.70
2019,05,22,03,38,11.70
2019,05,22,03,39,11.70
2019,05,22,03,40,11.70
2019,05,22,03,41,11.70
2019,05,22,03,42,11.70
2019,05,22,03,43,11.60
2019,05,22,03,44,11.60
2019,05,22,03,45,11.60
2019,05,22,03,46,11.60
2019,05,22,03,47,11.60
2019,05,22,03,48,11.60
2019,05,22,03,49,11.50
2019,05,22,03,50,11.50
2019,05,22,03,51,11.50
2019,05,22,03,52,11.50
2019,05,22,03,53,11.50
2019,05,22,03,54,11.50
2019,05,22,03,55,11.40
2019,05,22,03,56,11.40
2019,05,22,03,57,11.40
2019,05,22,03,58,11.40
2019,05,22,03,59,11.40
2019,05,22,04,00,11.40
2019,05,22,04,01,11.40
2019,05,22,04,02,11.40
2019,05,22,04,03,11.30
2019,05,22,04,04,11.30
2019,05,22,04,05,11.30
2019,05,22,04,06,11.30
2019,05,22,04,07,11.30
2019,05,22,04,08,11.30
2019,05,22,04,09,11.30
2019,05,22,04,10,11.30
2019,05,22,04,11,11.30
2019,05,22,04,12,11.30
2019,05,22,04,13,11.30
2019,05,22,04,14,11.30
2019,05,22,04,15,11.30
2019,05,22,04,16,11.30
2019,05,22,04,17,11.30
2019,05,22,04,18,11.30
2019,05,22,04,19,11.30
2019,05,22,04,20,11.30
2019,05,22,04,21,11.20
2019,05,22,04,22,11.20
2019,05,22,04,23,11.20
2019,05,22,04,24,11.20
2019,05,22,04,25,11.20
2019,05,22,04,26,11.20
2019,05,22,04,27,11.10
2019,05,22,04,28,11.10
2019,05,22,04,29,11.10
2019,05,22,04,30,11.10
2019,05,22,04,31,11.10
2019,05,22,04,32,11.10
2019,05,22,04,33,11.10
2019,05,22,04,34,11.10
2019,05,22,04,35,11.10
2019,05,22,04,36,11.10
2019,05,22,04,37,11.00
2019,05,22,04,38,11.00
2019,05,22,04,39,11.00
2019,05,22,04,40,11.00
2019,05,22,04,41,11.00
2019,05,22,04,42,11.00
2019,05,22,04,43,10.90
2019,05,22,04,44,10.90
2019,05,22,04,45,10.90
2019,05,22,04,46,10.90
2019,05,22,04,47,10.90
2019,05,22,04,48,10.90
2019,05,22,04,49,10.90
2019,05,22,04,50,10.90
2019,05,22,04,51,10.90
2019,05,22,04,52,10.90
2019,05,22,04,53,10.90
2019,05,22,04,54,10.90
2019,05,22,04,55,10.90
2019,05,22,04,56,10.90
2019,05,22,04,57,10.90
2019,05,22,04,58,10.90
2019,05,22,04,59,10.90
2019,05,22,05,00,10.90
2019,05,22,05,01,10.90
2019,05,22,05,02,10.90
2019,05,22,05,03,10.90
2019,05,22,05,04,10.90
2019,05,22,05,05,11.00
2019,05,22,05,06,11.00
2019,05,22,05,07,10.90
2019,05,22,05,08,10.90
2019,05,22,05,09,10.90
2019,05,22,05,10,10.90
2019,05,22,05,11,10.90
2019,05,22,05,12,10.90
2019,05,22,05,13,10.90
2019,05,22,05,14,10.90
2019,05,22,05,15,10.90
2019,05,22,05,16,10.90
2019,05,22,05,17,10.90
2019,05,22,05,18,10.80
2019,05,22,05,19,10.80
2019,05,22,05,20,10.80
2019,05,22,05,21,10.80
2019,05,22,05,22,10.80
2019,05,22,05,23,10.70
2019,05,22,05,24,10.70
2019,05,22,05,25,10.70
2019,05,22,05,26,10.70
2019,05,22,05,27,10.70
2019,05,22,05,28,10.70
2019,05,22,05,29,10.70
2019,05,22,05,30,10.70
2019,05,22,05,31,10.70
2019,05,22,05,32,10.70
2019,05,22,05,33,10.70
2019,05,22,05,34,10.70
2019,05,22,05,35,10.70
2019,05,22,05,36,10.70
2019,05,22,05,37,10.70
2019,05,22,05,38,10.70
2019,05,22,05,39,10.70
2019,05,22,05,40,10.70
2019,05,22,05,41,10.60
2019,05,22,05,42,10.60
2019,05,22,05,43,10.60
2019,05,22,05,44,10.60
2019,05,22,05,45,10.60
2019,05,22,05,46,10.60
2019,05,22,05,47,10.60
2019,05,22,05,48,10.60
2019,05,22,05,49,10.60
2019,05,22,05,50,10.60
2019,05,22,05,51,10.60
2019,05,22,05,52,10.60
2019,05,22,05,53,10.60
2019,05,22,05,54,10.60
2019,05,22,05,55,10.60
2019,05,22,05,56,10.60
2019,05,22,05,57,10.60
2019,05,22,05,58,10.60
2019,05,22,05,59,10.60
2019,05,22,06,00,10.60
2019,05,22,06,01,10.60
2019,05,22,06,02,10.60
2019,05,22,06,03,10.60
2019,05,22,06,04,10.60
2019,05,22,06,05,10.60
2019,05,22,06,06,10.60
2019,05,22,06,07,10.60
2019,05,22,06,08,10.60
2019,05,22,06,09,10.60
2019,05,22,06,10,10.60
2019,05,22,06,11,10.60
2019,05,22,06,12,10.60
2019,05,22,06,13,10.60
2019,05,22,06,14,10.60
2019,05,22,06,15,10.70
2019,05,22,06,16,10.70
2019,05,22,06,17,10.70
2019,05,22,06,18,10.70
2019,05,22,06,19,10.70
2019,05,22,06,20,10.70
2019,05,22,06,21,10.70
2019,05,22,06,22,10.70
2019,05,22,06,23,10.70
2019,05,22,06,24,10.70
2019,05,22,06,25,10.80
2019,05,22,06,26,10.80
2019,05,22,06,27,10.80
2019,05,22,06,28,10.80
2019,05,22,06,29,10.80
2019,05,22,06,30,10.90
2019,05,22,06,31,10.90
2019,05,22,06,32,10.90
2019,05,22,06,33,11.00
2019,05,22,06,34,11.00
2019,05,22,06,35,11.00
2019,05,22,06,36,11.10
2019,05,22,06,37,11.10
2019,05,22,06,38,11.10
2019,05,22,06,39,11.10
2019,05,22,06,40,11.10
2019,05,22,06,41,11.10
2019,05,22,06,42,11.10
2019,05,22,06,43,11.20
2019,05,22,06,44,11.20
2019,05,22,06,45,11.20
2019,05,22,06,46,11.30
2019,05,22,06,47,11.30
2019,05,22,06,48,11.40
2019,05,22,06,49,11.40
2019,05,22,06,50,11.50
2019,05,22,06,51,11.60
2019,05,22,06,52,11.60
2019,05,22,06,53,11.70
2019,05,22,06,54,11.80
2019,05,22,06,55,11.80
2019,05,22,06,56,11.90
2019,05,22,06,57,11.90
2019,05,22,06,58,12.00
2019,05,22,06,59,12.10
2019,05,22,07,00,12.10
2019,05,22,07,01,12.20
2019,05,22,07,02,12.20
2019,05,22,07,03,12.30
2019,05,22,07,04,12.30
2019,05,22,07,05,12.40
2019,05,22,07,06,12.50
2019,05,22,07,07,12.50
2019,05,22,07,08,12.60
2019,05,22,07,09,12.70
2019,05,22,07,10,12.70
2019,05,22,07,11,12.70
2019,05,22,07,12,12.80
2019,05,22,07,13,12.90
2019,05,22,07,14,12.90
2019,05,22,07,15,13.00
2019,05,22,07,16,13.00
2019,05,22,07,17,13.10
2019,05,22,07,18,13.10
2019,05,22,07,19,13.20
2019,05,22,07,20,13.20
2019,05,22,07,21,13.20
2019,05,22,07,22,13.20
2019,05,22,07,23,13.20
2019,05,22,07,24,13.30
2019,05,22,07,25,13.30
2019,05,22,07,26,13.30
2019,05,22,07,27,13.40
2019,05,22,07,28,13.40
2019,05,22,07,29,13.50
2019,05,22,07,30,13.60
2019,05,22,07,31,13.60
2019,05,22,07,32,13.70
2019,05,22,07,33,13.70
2019,05,22,07,34,13.80
2019,05,22,07,35,13.80
2019,05,22,07,36,13.80
2019,05,22,07,37,13.90
2019,05,22,07,38,13.90
2019,05,22,07,39,14.00
2019,05,22,07,40,14.00
2019,05,22,07,41,14.10
2019,05,22,07,42,14.10
2019,05,22,07,43,14.20
2019,05,22,07,44,14.20
2019,05,22,07,45,14.20
2019,05,22,07,46,14.20
2019,05,22,07,47,14.30
2019,05,22,07,48,14.20
2019,05,22,07,49,14.20
2019,05,22,07,50,14.20
2019,05,22,07,51,14.20
2019,05,22,07,52,14.30
2019,05,22,07,53,14.30
2019,05,22,07,54,14.30
2019,05,22,07,55,14.30
2019,05,22,07,56,14.40
2019,05,22,07,57,14.40
2019,05,22,07,58,14.50
2019,05,22,07,59,14.50
2019,05,22,08,00,14.50
2019,05,22,08,01,14.50
2019,05,22,08,02,14.40
2019,05,22,08,03,14.40
2019,05,22,08,04,14.40
2019,05,22,08,05,14.40
2019,05,22,08,06,14.50
2019,05,22,08,07,14.50
2019,05,22,08,08,14.60
2019,05,22,08,09,14.70
2019,05,22,08,10,14.70
2019,05,22,08,11,14.70
2019,05,22,08,12,14.70
2019,05,22,08,13,14.70
2019,05,22,08,14,14.70
2019,05,22,08,15,14.70
2019,05,22,08,16,14.70
2019,05,22,08,17,14.70
2019,05,22,08,18,14.80
2019,05,22,08,19,14.80
2019,05,22,08,20,14.90
2019,05,22,08,21,14.90
2019,05,22,08,22,15.00
2019,05,22,08,23,15.00
2019,05,22,08,24,15.10
2019,05,22,08,25,15.10
2019,05,22,08,26,15.10
2019,05,22,08,27,15.20
2019,05,22,08,28,15.30
2019,05,22,08,29,15.50
2019,05,22,08,30,15.60
2019,05,22,08,31,15.70
2019,05,22,08,32,15.80
2019,05,22,08,33,15.90
2019,05,22,08,34,16.00
2019,05,22,08,35,16.10
2019,05,22,08,36,16.20
2019,05,22,08,37,16.30
2019,05,22,08,38,16.30
2019,05,22,08,39,16.40
2019,05,22,08,40,16.40
2019,05,22,08,41,16.40
2019,05,22,08,42,16.40
2019,05,22,08,43,16.40
2019,05,22,08,44,16.40
2019,05,22,08,45,16.40
2019,05,22,08,46,16.50
2019,05,22,08,47,16.60
2019,05,22,08,48,16.60
2019,05,22,08,49,16.60
2019,05,22,08,50,16.60
2019,05,22,08,51,16.60
2019,05,22,08,52,16.50
2019,05,22,08,53,16.50
2019,05,22,08,54,16.40
2019,05,22,08,55,16.40
2019,05,22,08,56,16.40
2019,05,22,08,57,16.40
2019,05,22,08,58,16.40
2019,05,22,08,59,16.50
2019,05,22,09,00,16.50
2019,05,22,09,01,16.60
2019,05,22,09,02,16.60
2019,05,22,09,03,16.70
2019,05,22,09,04,16.80
2019,05,22,09,05,16.80
2019,05,22,09,06,16.80
2019,05,22,09,07,16.90
2019,05,22,09,08,16.90
2019,05,22,09,09,17.00
2019,05,22,09,10,17.00
2019,05,22,09,11,17.00
2019,05,22,09,12,17.10
2019,05,22,09,13,17.10
2019,05,22,09,14,17.10
2019,05,22,09,15,17.20
2019,05,22,09,16,17.30
2019,05,22,09,17,17.30
2019,05,22,09,18,17.40
2019,05,22,09,19,17.40
2019,05,22,09,20,17.50
2019,05,22,09,21,17.60
2019,05,22,09,22,17.60
2019,05,22,09,23,17.70
2019,05,22,09,24,17.70
2019,05,22,09,25,17.70
2019,05,22,09,26,17.70
2019,05,22,09,27,17.70
2019,05,22,09,28,17.70
2019,05,22,09,29,17.70
2019,05,22,09,30,17.70
2019,05,22,09,31,17.70
2019,05,22,09,32,17.60
2019,05,22,09,33,17.60
2019,05,22,09,34,17.60
2019,05,22,09,35,17.70
2019,05,22,09,36,17.70
2019,05,22,09,37,17.70
2019,05,22,09,38,17.70
2019,05,22,09,39,17.70
2019,05,22,09,40,17.80
2019,05,22,09,41,17.80
2019,05,22,09,42,17.90
2019,05,22,09,43,17.90
2019,05,22,09,44,17.90
2019,05,22,09,45,18.00
2019,05,22,09,46,18.00
2019,05,22,09,47,18.10
2019,05,22,09,48,18.20
2019,05,22,09,49,18.30
2019,05,22,09,50,18.30
2019,05,22,09,51,18.40
2019,05,22,09,52,18.40
2019,05,22,09,53,18.40
2019,05,22,09,54,18.30
2019,05,22,09,55,18.30
2019,05,22,09,56,18.20
2019,05,22,09,57,18.20
2019,05,22,09,58,18.20
2019,05,22,09,59,18.20
2019,05,22,10,00,18.20
2019,05,22,10,01,18.20
2019,05,22,10,02,18.20
2019,05,22,10,03,18.20
2019,05,22,10,04,18.20
2019,05,22,10,05,18.20
2019,05,22,10,06,18.20
2019,05,22,10,07,18.20
2019,05,22,10,08,18.30
2019,05,22,10,09,18.30
2019,05,22,10,10,18.40
2019,05,22,10,11,18.40
2019,05,22,10,12,18.50
2019,05,22,10,13,18.50
2019,05,22,10,14,18.60
2019,05,22,10,15,18.80
2019,05,22,10,16,18.90
2019,05,22,10,17,19.00
2019,05,22,10,18,19.10
2019,05,22,10,19,19.20
2019,05,22,10,20,19.30
2019,05,22,10,21,19.40
2019,05,22,10,22,19.40
2019,05,22,10,23,19.50
2019,05,22,10,24,19.50
2019,05,22,10,25,19.60
2019,05,22,10,26,19.60
2019,05,22,10,27,19.70
2019,05,22,10,28,19.70
2019,05,22,10,29,19.70
2019,05,22,10,30,19.80
2019,05,22,10,31,19.80
2019,05,22,10,32,19.80
2019,05,22,10,33,19.80
2019,05,22,10,34,19.80
2019,05,22,10,35,19.80
2019,05,22,10,36,19.80
2019,05,22,10,37,19.90
2019,05,22,10,38,20.00
2019,05,22,10,39,20.20
2019,05,22,10,40,20.30
2019,05,22,10,41,20.30
2019,05,22,10,42,20.30
2019,05,22,10,43,20.40
2019,05,22,10,44,20.40
2019,05,22,10,45,20.40
2019,05,22,10,46,20.40
2019,05,22,10,47,20.40
2019,05,22,10,48,20.50
2019,05,22,10,49,20.50
2019,05,22,10,50,20.50
2019,05,22,10,51,20.40
2019,05,22,10,52,20.40
2019,05,22,10,53,20.50
2019,05,22,10,54,20.50
2019,05,22,10,55,20.60
2019,05,22,10,56,20.70
2019,05,22,10,57,20.70
2019,05,22,10,58,20.70
2019,05,22,10,59,20.70
2019,05,22,11,00,20.70
2019,05,22,11,01,20.70
2019,05,22,11,02,20.60
2019,05,22,11,03,20.60
2019,05,22,11,04,20.60
2019,05,22,11,05,20.60
2019,05,22,11,06,20.60
2019,05,22,11,07,20.60
2019,05,22,11,08,20.60
2019,05,22,11,09,20.50
2019,05,22,11,10,20.50
2019,05,22,11,11,20.50
2019,05,22,11,12,20.60
2019,05,22,11,13,20.70
2019,05,22,11,14,20.90
2019,05,22,11,15,20.90
2019,05,22,11,16,21.00
2019,05,22,11,17,21.00
2019,05,22,11,18,21.00
2019,05,22,11,19,21.10
2019,05,22,11,20,21.10
2019,05,22,11,21,21.20
2019,05,22,11,22,21.30
2019,05,22,11,23,21.30
2019,05,22,11,24,21.30
2019,05,22,11,25,21.30
2019,05,22,11,26,21.30
2019,05,22,11,27,21.30
2019,05,22,11,28,21.30
2019,05,22,11,29,21.40
2019,05,22,11,30,21.40
2019,05,22,11,31,21.50
2019,05,22,11,32,21.60
2019,05,22,11,33,21.60
2019,05,22,11,34,21.60
2019,05,22,11,35,21.50
2019,05,22,11,36,21.50
2019,05,22,11,37,21.60
2019,05,22,11,38,21.60
2019,05,22,11,39,21.60
2019,05,22,11,40,21.70
2019,05,22,11,41,21.70
2019,05,22,11,42,21.80
2019,05,22,11,43,21.80
2019,05,22,11,44,21.90
2019,05,22,11,45,22.00
2019,05,22,11,46,22.20
2019,05,22,11,47,22.30
2019,05,22,11,48,22.30
2019,05,22,11,49,22.30
2019,05,22,11,50,22.30
2019,05,22,11,51,22.30
2019,05,22,11,52,22.30
2019,05,22,11,53,22.30
2019,05,22,11,54,22.30
2019,05,22,11,55,22.30
2019,05,22,11,56,22.40
2019,05,22,11,57,22.40
2019,05,22,11,58,22.40
2019,05,22,11,59,22.40
2019,05,22,12,00,22.40
2019,05,22,12,01,22.50
2019,05,22,12,02,22.50
2019,05,22,12,03,22.60
2019,05,22,12,04,22.60
2019,05,22,12,05,22.70
2019,05,22,12,06,22.80
2019,05,22,12,07,22.80
2019,05,22,12,08,22.90
2019,05,22,12,09,23.00
2019,05,22,12,10,23.00
2019,05,22,12,11,23.00
2019,05,22,12,12,23.00
2019,05,22,12,13,22.90
2019,05,22,12,14,22.90
2019,05,22,12,15,22.90
2019,05,22,12,16,22.90
2019,05,22,12,17,22.90
2019,05,22,12,18,22.90
2019,05,22,12,19,22.80
2019,05,22,12,20,22.80
2019,05,22,12,21,22.80
2019,05,22,12,22,22.90
2019,05,22,12,23,22.90
2019,05,22,12,24,23.10
2019,05,22,12,25,23.20
2019,05,22,12,26,23.30
2019,05,22,12,27,23.30
2019,05,22,12,28,23.30
2019,05,22,12,29,23.30
2019,05,22,12,30,23.30
2019,05,22,12,31,23.40
2019,05,22,12,32,23.40
2019,05,22,12,33,23.50
2019,05,22,12,34,23.60
2019,05,22,12,35,23.60
2019,05,22,12,36,23.60
2019,05,22,12,37,23.60
2019,05,22,12,38,23.70
2019,05,22,12,39,23.70
2019,05,22,12,40,23.80
2019,05,22,12,41,23.80
2019,05,22,12,42,23.90
2019,05,22,12,43,23.90
2019,05,22,12,44,23.90
2019,05,22,12,45,24.00
2019,05,22,12,46,24.10
2019,05,22,12,47,24.10
2019,05,22,12,48,24.10
2019,05,22,12,49,24.10
2019,05,22,12,50,24.20
2019,05,22,12,51,24.20
2019,05,22,12,52,24.20
2019,05,22,12,53,24.30
2019,05,22,12,54,24.30
2019,05,22,12,55,24.30
2019,05,22,12,56,24.30
2019,05,22,12,57,24.30
2019,05,22,12,58,24.30
2019,05,22,12,59,24.30
2019,05,22,13,00,24.40
2019,05,22,13,01,24.40
2019,05,22,13,02,24.40
2019,05,22,13,03,24.50
2019,05,22,13,04,24.60
2019,05,22,13,05,24.70
2019,05,22,13,06,24.80
2019,05,22,13,07,24.90
2019,05,22,13,08,25.00
2019,05,22,13,09,25.10
2019,05,22,13,10,25.10
2019,05,22,13,11,25.10
2019,05,22,13,12,25.10
2019,05,22,13,13,25.00
2019,05,22,13,14,25.00
2019,05,22,13,15,25.00
2019,05,22,13,16,25.00
2019,05,22,13,17,25.00
2019,05,22,13,18,25.10
2019,05,22,13,19,25.20
2019,05,22,13,20,25.20
2019,05,22,13,21,25.30
2019,05,22,13,22,25.30
2019,05,22,13,23,25.30
2019,05,22,13,24,25.40
2019,05,22,13,25,25.40
2019,05,22,13,26,25.40
2019,05,22,13,27,25.50
2019,05,22,13,28,25.50
2019,05,22,13,29,25.60
2019,05,22,13,30,25.60
2019,05,22,13,31,25.70
2019,05,22,13,32,25.60
2019,05,22,13,33,25.60
2019,05,22,13,34,25.60
2019,05,22,13,35,25.60
2019,05,22,13,36,25.60
2019,05,22,13,37,25.60
2019,05,22,13,38,25.60
2019,05,22,13,39,25.70
2019,05,22,13,40,25.80
2019,05,22,13,41,25.80
2019,05,22,13,42,25.80
2019,05,22,13,43,25.80
2019,05,22,13,44,25.80
2019,05,22,13,45,25.80
2019,05,22,13,46,25.90
2019,05,22,13,47,25.90
2019,05,22,13,48,25.90
2019,05,22,13,49,25.90
2019,05,22,13,50,25.90
2019,05,22,13,51,26.00
2019,05,22,13,52,26.00
2019,05,22,13,53,26.10
2019,05,22,13,54,26.10
2019,05,22,13,55,26.10
2019,05,22,13,56,26.00
2019,05,22,13,57,25.90
2019,05,22,13,58,25.90
2019,05,22,13,59,25.90
2019,05,22,14,00,25.90
2019,05,22,14,01,25.90
2019,05,22,14,02,25.90
2019,05,22,14,03,25.90
2019,05,22,14,04,25.80
2019,05,22,14,05,25.80
2019,05,22,14,06,25.70
2019,05,22,14,07,25.70
2019,05,22,14,08,25.70
2019,05,22,14,09,25.80
2019,05,22,14,10,25.80
2019,05,22,14,11,25.90
2019,05,22,14,12,25.90
2019,05,22,14,13,25.90
2019,05,22,14,14,26.00
2019,05,22,14,15,26.00
2019,05,22,14,16,26.10
2019,05,22,14,17,26.10
2019,05,22,14,18,26.10
2019,05,22,14,19,26.20
2019,05,22,14,20,26.20
2019,05,22,14,21,26.30
2019,05,22,14,22,26.30
2019,05,22,14,23,26.40
2019,05,22,14,24,26.50
2019,05,22,14,25,26.60
2019,05,22,14,26,26.50
2019,05,22,14,27,26.40
2019,05,22,14,28,26.40
2019,05,22,14,29,26.40
2019,05,22,14,30,26.50
2019,05,22,14,31,26.50
2019,05,22,14,32,26.50
2019,05,22,14,33,26.60
2019,05,22,14,34,26.60
2019,05,22,14,35,26.60
2019,05,22,14,36,26.70
2019,05,22,14,37,26.70
2019,05,22,14,38,26.70
2019,05,22,14,39,26.70
2019,05,22,14,40,26.70
2019,05,22,14,41,26.70
2019,05,22,14,42,26.70
2019,05,22,14,43,26.60
2019,05,22,14,44,26.60
2019,05,22,14,45,26.60
2019,05,22,14,46,26.60
2019,05,22,14,47,26.60
2019,05,22,14,48,26.60
2019,05,22,14,49,26.60
2019,05,22,14,50,26.60
2019,05,22,14,51,26.70
2019,05,22,14,52,26.60
2019,05,22,14,53,26.60
2019,05,22,14,54,26.60
2019,05,22,14,55,26.60
2019,05,22,14,56,26.60
2019,05,22,14,57,26.50
2019,05,22,14,58,26.50
2019,05,22,14,59,26.50
2019,05,22,15,00,26.40
2019,05,22,15,01,26.40
2019,05,22,15,02,26.40
2019,05,22,15,03,26.40
2019,05,22,15,04,26.40
2019,05,22,15,05,26.40
2019,05,22,15,06,26.40
2019,05,22,15,07,26.40
2019,05,22,15,08,26.40
2019,05,22,15,09,26.50
2019,05,22,15,10,26.60
2019,05,22,15,11,26.60
2019,05,22,15,12,26.60
2019,05,22,15,13,26.60
2019,05,22,15,14,26.60
2019,05,22,15,15,26.50
2019,05,22,15,16,26.40
2019,05,22,15,17,26.40
2019,05,22,15,18,26.40
2019,05,22,15,19,26.40
2019,05,22,15,20,26.40
2019,05,22,15,21,26.50
2019,05,22,15,22,26.50
2019,05,22,15,23,26.60
2019,05,22,15,24,26.60
2019,05,22,15,25,26.70
2019,05,22,15,26,26.70
2019,05,22,15,27,26.70
2019,05,22,15,28,26.60
2019,05,22,15,29,26.60
2019,05,22,15,30,26.60
2019,05,22,15,31,26.50
2019,05,22,15,32,26.50
2019,05,22,15,33,26.40
2019,05,22,15,34,26.30
2019,05,22,15,35,26.30
2019,05,22,15,36,26.30
2019,05,22,15,37,26.30
2019,05,22,15,38,26.30
2019,05,22,15,39,26.30
2019,05,22,15,40,26.30
2019,05,22,15,41,26.30
2019,05,22,15,42,26.20
2019,05,22,15,43,26.20
2019,05,22,15,44,26.10
2019,05,22,15,45,26.10
2019,05,22,15,46,26.10
2019,05,22,15,47,26.20
2019,05,22,15,48,26.20
2019,05,22,15,49,26.30
2019,05,22,15,50,26.40
2019,05,22,15,51,26.50
2019,05,22,15,52,26.60
2019,05,22,15,53,26.70
2019,05,22,15,54,26.70
2019,05,22,15,55,26.70
2019,05,22,15,56,26.60
2019,05,22,15,57,26.60
2019,05,22,15,58,26.50
2019,05,22,15,59,26.40
2019,05,22,16,00,26.40
2019,05,22,16,01,26.30
2019,05,22,16,02,26.30
2019,05,22,16,03,26.30
2019,05,22,16,04,26.40
2019,05,22,16,05,26.40
2019,05,22,16,06,26.40
2019,05,22,16,07,26.40
2019,05,22,16,08,26.40
2019,05,22,16,09,26.40
2019,05,22,16,10,26.40
2019,05,22,16,11,26.40
2019,05,22,16,12,26.40
2019,05,22,16,13,26.40
2019,05,22,16,14,26.40
2019,05,22,16,15,26.40
2019,05,22,16,16,26.40
2019,05,22,16,17,26.40
2019,05,22,16,18,26.40
2019,05,22,16,19,26.30
2019,05,22,16,20,26.30
2019,05,22,16,21,26.40
2019,05,22,16,22,26.40
2019,05,22,16,23,26.50
2019,05,22,16,24,26.60
2019,05,22,16,25,26.70
2019,05,22,16,26,26.80
2019,05,22,16,27,26.80
2019,05,22,16,28,26.80
2019,05,22,16,29,26.70
2019,05,22,16,30,26.70
2019,05,22,16,31,26.70
2019,05,22,16,32,26.70
2019,05,22,16,33,26.80
2019,05,22,16,34,26.70
2019,05,22,16,35,26.70
2019,05,22,16,36,26.80
2019,05,22,16,37,26.80
2019,05,22,16,38,26.90
2019,05,22,16,39,27.00
2019,05,22,16,40,27.00
2019,05,22,16,41,27.10
2019,05,22,16,42,27.10
2019,05,22,16,43,27.10
2019,05,22,16,44,27.10
2019,05,22,16,45,27.10
2019,05,22,16,46,27.10
2019,05,22,16,47,27.10
2019,05,22,16,48,27.00
2019,05,22,16,49,27.00
2019,05,22,16,50,26.90
2019,05,22,16,51,26.80
2019,05,22,16,52,26.80
2019,05,22,16,53,26.80
2019,05,22,16,54,26.90
2019,05,22,16,55,26.90
2019,05,22,16,56,26.90
2019,05,22,16,57,26.90
2019,05,22,16,58,26.90
2019,05,22,16,59,26.90
2019,05,22,17,00,26.90
2019,05,22,17,01,26.90
2019,05,22,17,02,26.90
2019,05,22,17,03,26.90
2019,05,22,17,04,26.90
2019,05,22,17,05,27.00
2019,05,22,17,06,27.10
2019,05,22,17,07,27.20
2019,05,22,17,08,27.30
2019,05,22,17,09,27.30
2019,05,22,17,10,27.40
2019,05,22,17,11,27.50
2019,05,22,17,12,27.60
2019,05,22,17,13,27.50
2019,05,22,17,14,27.40
2019,05,22,17,15,27.30
2019,05,22,17,16,27.20
2019,05,22,17,17,27.10
2019,05,22,17,18,27.00
2019,05,22,17,19,27.00